TimeEST,TemperatureF,Dew PointF,Humidity,Sea Level PressureIn,VisibilityMPH,Wind Direction,Wind SpeedMPH,Gust SpeedMPH,PrecipitationIn,Events,Conditions,WindDirDegrees,DateUTC
12:57 AM,39.9,37.9,93,30.19,6.0,Calm,Calm,-,N/A,,Clear,0,2013-12-17 05:57:00
1:57 AM,39.9,37.0,89,30.19,5.0,Calm,Calm,-,N/A,,Clear,0,2013-12-17 06:57:00
2:57 AM,39.9,37.0,89,30.19,8.0,Calm,Calm,-,N/A,,Clear,0,2013-12-17 07:57:00
3:57 AM,39.9,37.9,93,30.19,9.0,Calm,Calm,-,N/A,,Clear,0,2013-12-17 08:57:00
4:57 AM,46.0,42.1,86,30.19,10.0,WSW,4.6,-,N/A,,Clear,250,2013-12-17 09:57:00
5:57 AM,45.0,39.9,82,30.19,10.0,SW,5.8,-,N/A,,Clear,230,2013-12-17 10:57:00
6:57 AM,45.0,39.9,82,30.19,10.0,Variable,5.8,-,N/A,,Clear,0,2013-12-17 11:57:00
7:57 AM,46.9,37.9,71,30.18,10.0,WSW,4.6,-,N/A,,Clear,240,2013-12-17 12:57:00
8:57 AM,50.0,37.9,63,30.19,10.0,WSW,6.9,-,N/A,,Clear,240,2013-12-17 13:57:00
9:57 AM,53.1,36.0,52,30.20,10.0,WSW,10.4,18.4,N/A,,Clear,240,2013-12-17 14:57:00
10:57 AM,54.0,37.0,53,30.17,10.0,SW,9.2,-,N/A,,Clear,230,2013-12-17 15:57:00
11:57 AM,55.0,37.9,53,30.13,10.0,North,-9999.0,-,N/A,,Clear,0,2013-12-17 16:57:00
12:57 PM,55.9,41.0,57,30.10,10.0,SW,11.5,-,N/A,,Clear,220,2013-12-17 17:57:00
1:57 PM,57.0,42.1,57,30.08,10.0,SW,11.5,-,N/A,,Clear,230,2013-12-17 18:57:00
2:57 PM,57.9,44.1,60,30.06,10.0,SW,11.5,-,N/A,,Clear,220,2013-12-17 19:57:00
3:57 PM,57.0,46.0,67,30.04,10.0,SW,12.7,-,N/A,,Clear,220,2013-12-17 20:57:00
4:57 PM,55.9,46.0,69,30.04,10.0,SW,11.5,-,N/A,,Clear,230,2013-12-17 21:57:00
5:57 PM,55.9,45.0,67,30.03,10.0,SW,13.8,-,N/A,,Clear,230,2013-12-17 22:57:00
6:57 PM,57.0,46.0,67,30.01,10.0,SW,13.8,24.2,N/A,,Clear,220,2013-12-17 23:57:00
7:57 PM,57.9,46.0,65,30.00,10.0,SW,15.0,-,N/A,,Clear,230,2013-12-18 00:57:00
8:57 PM,57.9,48.0,70,30.00,10.0,WSW,12.7,20.7,N/A,,Clear,240,2013-12-18 01:57:00
9:57 PM,57.0,48.0,72,30.01,10.0,WSW,12.7,-,N/A,,Clear,240,2013-12-18 02:57:00
10:57 PM,55.0,46.0,72,30.00,10.0,WSW,11.5,19.6,N/A,,Clear,240,2013-12-18 03:57:00
11:57 PM,55.0,39.0,55,30.01,10.0,West,8.1,-,N/A,,Clear,260,2013-12-18 04:57:00